Location: Ajisawe
(8.4333°N, 4.3833°E)
Time: 07:00:47
(UTC+00:00)

A-11 Canister half - Pass Details

Date: 25 April 2021
Orbit: 1514 x 1685 km, 47.2° (Epoch: 12 May)

Event Time Altitude Azimuth Distance (km) Brightness Sun altitude
Rises 02:59:33 0° 326° (NW) 4,848 11.5 -36.0°
Reaches altitude 10° 03:02:43 10° 330° (NNW) 3,881 11.0 -35.3°
Maximum altitude 03:12:32 60° 49° (NE) 1,874 9.5 -33.1°
Drops below altitude 10° 03:22:30 10° 126° (SE) 3,944 11.5 -30.8°
Sets 03:25:44 0° 130° (SE) 4,930 12.0 -30.0°
